QPF
0.00 0.00 0.00 0.00 0.00 0.00 0.00 0.00 0.00 0.00 0.00 0.00 0.00 0.00 0.00 0.00 0.00 0.00 0.00 0.00 0.00 0.00 0.00 0.00 0.00 0.00 0.01 0.02 0.03 0.02 0.03 0.04 0.04 0.05 0.06 0.07 0.07 0.10 0.12 0.13 0.15 0.17 0.19 0.21
0.00 0.00 0.00 0.00 0.00 0.00 0.00 0.00 0.00 0.00 0.00 0.00 0.00 0.00 0.00 0.00 0.00 0.00 0.00 0.00 0.00 0.00 0.01 0.01 0.01 0.01 0.02 0.04 0.05 0.05 0.06 0.09 0.11 0.13 0.17 0.19 0.23 0.24 0.24 0.24 0.26 0.26 0.24 0.23
0.00 0.00 0.00 0.00 0.00 0.00 0.00 0.00 0.00 0.00 0.00 0.00 0.00 0.00 0.00 0.00 0.00 0.00 0.00 0.00 0.00 0.00 0.01 0.02 0.03 0.03 0.04 0.05 0.07 0.07 0.08 0.10 0.13 0.18 0.26 0.29 0.31 0.30 0.31 0.34 0.36 0.35 0.31 0.28
0.00 0.00 0.00 0.00 0.00 0.00 0.00 0.00 0.00 0.00 0.00 0.00 0.00 0.00 0.00 0.00 0.00 0.00 0.00 0.00 0.00 0.00 0.01 0.03 0.04 0.05 0.06 0.07 0.09 0.09 0.08 0.10 0.15 0.21 0.30 0.35 0.37 0.39 0.44 0.47 0.45 0.40 0.35 0.32
0.00 0.00 0.00 0.00 0.00 0.00 0.00 0.00 0.00 0.00 0.00 0.00 0.00 0.00 0.00 0.00 0.00 0.00 0.00 0.00 0.00 0.00 0.01 0.01 0.02 0.03 0.05 0.06 0.07 0.09 0.08 0.10 0.14 0.18 0.24 0.33 0.35 0.39 0.43 0.44 0.42 0.38 0.36 0.33
0.00 0.00 0.00 0.00 0.00 0.00 0.00 0.00 0.00 0.00 0.00 0.00 0.00 0.00 0.00 0.00 0.00 0.00 0.00 0.00 0.00 0.00 0.00 0.00 0.00 0.01 0.01 0.02 0.04 0.05 0.06 0.06 0.08 0.10 0.11 0.14 0.17 0.24 0.27 0.29 0.30 0.30 0.29 0.29
0.00 0.00 0.00 0.00 0.00 0.00 0.00 0.00 0.00 0.00 0.00 0.00 0.00 0.00 0.00 0.00 0.00 0.00 0.00 0.00 0.00 0.00 0.00 0.00 0.00 0.00 0.01 0.01 0.02 0.03 0.03 0.04 0.05 0.06 0.07 0.09 0.13 0.19 0.23 0.24 0.25 0.25 0.24 0.25
0.00 0.00 0.00 0.00 0.00 0.00 0.00 0.00 0.00 0.00 0.00 0.00 0.00 0.00 0.00 0.00 0.00 0.00 0.00 0.00 0.00 0.00 0.00 0.00 0.00 0.00 0.00 0.01 0.01 0.02 0.03 0.04 0.05 0.06 0.07 0.08 0.12 0.19 0.20 0.22 0.23 0.22 0.20 0.19
0.00 0.00 0.00 0.00 0.00 0.00 0.00 0.00 0.00 0.00 0.00 0.00 0.00 0.00 0.00 0.00 0.00 0.00 0.00 0.00 0.00 0.00 0.00 0.00 0.00 0.00 0.00 0.01 0.01 0.02 0.03 0.05 0.06 0.09 0.10 0.11 0.14 0.18 0.20 0.21 0.23 0.22 0.20 0.17
0.00 0.00 0.00 0.00 0.00 0.00 0.00 0.00 0.00 0.00 0.00 0.00 0.00 0.00 0.00 0.00 0.00 0.00 0.00 0.00 0.00 0.00 0.00 0.00 0.00 0.00 0.00 0.01 0.02 0.04 0.06 0.07 0.10 0.12 0.15 0.15 0.16 0.16 0.17 0.18 0.19 0.18 0.15 0.12
0.00 0.00 0.00 0.00 0.00 0.00 0.00 0.00 0.00 0.00 0.00 0.00 0.00 0.00 0.00 0.00 0.00 0.00 0.00 0.00 0.00 0.00 0.00 0.00 0.00 0.00 0.00 0.01 0.03 0.05 0.08 0.11 0.15 0.17 0.21 0.23 0.21 0.18 0.18 0.17 0.17 0.16 0.13 0.10
0.00 0.00 0.00 0.00 0.00 0.00 0.00 0.00 0.00 0.00 0.00 0.00 0.00 0.00 0.00 0.00 0.00 0.00 0.00 0.00 0.00 0.00 0.00 0.00 0.00 0.01 0.01 0.02 0.04 0.07 0.10 0.16 0.21 0.22 0.25 0.29 0.26 0.20 0.17 0.14 0.12 0.10 0.09 0.07
0.00 0.00 0.00 0.00 0.00 0.00 0.00 0.00 0.00 0.00 0.00 0.00 0.00 0.00 0.00 0.00 0.00 0.00 0.00 0.00 0.00 0.00 0.00 0.00 0.01 0.02 0.03 0.05 0.08 0.12 0.16 0.22 0.27 0.29 0.30 0.28 0.29 0.25 0.19 0.13 0.10 0.08 0.07 0.05
0.00 0.00 0.00 0.00 0.00 0.00 0.00 0.00 0.00 0.00 0.00 0.00 0.00 0.00 0.00 0.00 0.00 0.00 0.00 0.00 0.00 0.00 0.00 0.00 0.01 0.02 0.05 0.07 0.10 0.14 0.22 0.31 0.30 0.29 0.28 0.26 0.23 0.21 0.19 0.16 0.13 0.10 0.07 0.04
0.00 0.00 0.00 0.00 0.00 0.00 0.00 0.00 0.00 0.00 0.00 0.00 0.00 0.00 0.00 0.00 0.00 0.00 0.00 0.00 0.00 0.00 0.00 0.00 0.00 0.02 0.03 0.05 0.08 0.12 0.14 0.22 0.27 0.26 0.24 0.21 0.20 0.17 0.15 0.11 0.08 0.07 0.04 0.03
0.00 0.00 0.00 0.00 0.00 0.00 0.00 0.00 0.00 0.00 0.00 0.00 0.00 0.00 0.00 0.00 0.00 0.00 0.00 0.00 0.00 0.00 0.00 0.00 0.00 0.00 0.01 0.02 0.04 0.06 0.07 0.12 0.16 0.16 0.16 0.16 0.14 0.13 0.14 0.10 0.06 0.04 0.03 0.02
0.00 0.00 0.00 0.00 0.00 0.00 0.00 0.00 0.00 0.00 0.00 0.00 0.00 0.00 0.00 0.00 0.00 0.00 0.00 0.00 0.00 0.00 0.00 0.00 0.00 0.00 0.00 0.01 0.01 0.02 0.04 0.05 0.08 0.11 0.12 0.12 0.11 0.09 0.09 0.07 0.06 0.04 0.02 0.01
0.00 0.00 0.00 0.00 0.00 0.00 0.00 0.00 0.00 0.00 0.00 0.00 0.00 0.00 0.00 0.00 0.00 0.00 0.00 0.00 0.00 0.00 0.00 0.00 0.00 0.00 0.00 0.00 0.01 0.02 0.02 0.03 0.06 0.08 0.10 0.10 0.08 0.06 0.05 0.05 0.06 0.04 0.02 0.01
0.00 0.00 0.00 0.00 0.00 0.00 0.00 0.00 0.00 0.00 0.00 0.00 0.00 0.00 0.00 0.00 0.00 0.00 0.00 0.00 0.00 0.00 0.00 0.00 0.00 0.00 0.00 0.00 0.00 0.01 0.02 0.03 0.04 0.06 0.09 0.08 0.06 0.05 0.04 0.04 0.04 0.04 0.04 0.02
0.00 0.00 0.00 0.00 0.00 0.00 0.00 0.00 0.00 0.00 0.00 0.00 0.00 0.00 0.00 0.00 0.00 0.00 0.00 0.00 0.00 0.00 0.00 0.00 0.00 0.00 0.00 0.00 0.00 0.01 0.01 0.02 0.03 0.05 0.06 0.05 0.04 0.05 0.04 0.04 0.03 0.03 0.03 0.02
0.00 0.00 0.00 0.00 0.00 0.00 0.00 0.00 0.00 0.00 0.00 0.00 0.00 0.00 0.00 0.00 0.00 0.00 0.00 0.00 0.00 0.00 0.00 0.00 0.00 0.00 0.00 0.00 0.00 0.00 0.01 0.02 0.03 0.04 0.04 0.04 0.05 0.05 0.05 0.04 0.03 0.03 0.02 0.02
0.00 0.00 0.00 0.00 0.00 0.00 0.00 0.00 0.00 0.00 0.00 0.00 0.00 0.00 0.00 0.00 0.00 0.00 0.00 0.00 0.00 0.00 0.00 0.00 0.00 0.00 0.00 0.00 0.00 0.00 0.00 0.01 0.02 0.03 0.04 0.05 0.05 0.03 0.02 0.03 0.03 0.03 0.02 0.01
0.00 0.00 0.00 0.00 0.00 0.00 0.00 0.00 0.00 0.00 0.00 0.00 0.00 0.00 0.00 0.00 0.00 0.00 0.00 0.00 0.00 0.00 0.00 0.00 0.00 0.00 0.00 0.00 0.00 0.00 0.00 0.01 0.02 0.03 0.05 0.05 0.04 0.02 0.02 0.03 0.03 0.02 0.02 0.01
0.00 0.00 0.00 0.00 0.00 0.00 0.00 0.00 0.00 0.00 0.00 0.00 0.00 0.00 0.00 0.00 0.00 0.00 0.00 0.00 0.00 0.00 0.00 0.00 0.00 0.00 0.00 0.00 0.00 0.00 0.00 0.01 0.02 0.03 0.04 0.04 0.04 0.03 0.02 0.03 0.04 0.03 0.02 0.02
0.00 0.00 0.00 0.00 0.01 0.00 0.00 0.00 0.00 0.00 0.00 0.00 0.00 0.00 0.00 0.00 0.00 0.00 0.00 0.00 0.00 0.00 0.00 0.00 0.00 0.00 0.00 0.00 0.00 0.00 0.00 0.01 0.02 0.03 0.03 0.03 0.03 0.03 0.02 0.02 0.03 0.03 0.03 0.02
0.00 0.01 0.02 0.02 0.02 0.02 0.02 0.01 0.00 0.00 0.00 0.00 0.00 0.00 0.00 0.00 0.00 0.00 0.00 0.00 0.00 0.00 0.00 0.00 0.00 0.00 0.00 0.00 0.00 0.00 0.00 0.00 0.02 0.03 0.03 0.03 0.02 0.02 0.01 0.01 0.00 0.00 0.01 0.00
MSLP
1013.45 1013.74 1013.91 1013.98 1013.98 1013.94 1013.89 1013.84 1013.79 1013.73 1013.62 1013.45 1013.21 1012.88 1012.48 1012.04 1011.58 1011.14 1010.72 1010.35 1010.03 1009.76 1009.55 1009.40 1009.33 1009.34 1009.45 1009.67 1009.98 1010.36 1010.78 1011.19 1011.56 1011.86 1012.08 1012.24 1012.34 1012.42 1012.51 1012.63 1012.79 1012.97 1013.15 1013.30
1013.68 1013.91 1014.03 1014.06 1014.03 1013.99 1013.95 1013.92 1013.90 1013.86 1013.77 1013.62 1013.39 1013.08 1012.71 1012.30 1011.89 1011.49 1011.13 1010.81 1010.53 1010.28 1010.06 1009.88 1009.75 1009.68 1009.69 1009.81 1010.01 1010.30 1010.64 1011.00 1011.33 1011.62 1011.84 1011.99 1012.10 1012.19 1012.28 1012.41 1012.56 1012.73 1012.90 1013.04
1013.83 1013.99 1014.05 1014.05 1014.02 1013.98 1013.97 1013.98 1013.99 1013.97 1013.90 1013.74 1013.51 1013.20 1012.83 1012.44 1012.06 1011.72 1011.43 1011.19 1010.97 1010.78 1010.59 1010.41 1010.24 1010.10 1010.02 1010.02 1010.10 1010.27 1010.50 1010.77 1011.04 1011.28 1011.47 1011.61 1011.71 1011.80 1011.90 1012.02 1012.18 1012.36 1012.53 1012.66
1013.92 1014.00 1014.02 1014.00 1013.98 1013.98 1014.02 1014.08 1014.13 1014.14 1014.07 1013.91 1013.64 1013.30 1012.91 1012.51 1012.15 1011.85 1011.62 1011.45 1011.32 1011.20 1011.06 1010.90 1010.72 1010.53 1010.36 1010.24 1010.20 1010.23 1010.33 1010.48 1010.65 1010.82 1010.96 1011.07 1011.16 1011.25 1011.35 1011.49 1011.66 1011.85 1012.04 1012.18
1013.96 1013.97 1013.95 1013.93 1013.95 1014.03 1014.14 1014.27 1014.38 1014.42 1014.36 1014.17 1013.86 1013.46 1013.01 1012.57 1012.19 1011.90 1011.71 1011.60 1011.54 1011.49 1011.41 1011.28 1011.10 1010.88 1010.64 1010.43 1010.26 1010.15 1010.12 1010.14 1010.20 1010.28 1010.36 1010.43 1010.50 1010.58 1010.70 1010.85 1011.04 1011.26 1011.47 1011.65
1013.98 1013.93 1013.89 1013.89 1013.97 1014.13 1014.34 1014.57 1014.75 1014.83 1014.77 1014.55 1014.18 1013.70 1013.17 1012.67 1012.23 1011.91 1011.72 1011.64 1011.62 1011.63 1011.61 1011.53 1011.36 1011.13 1010.85 1010.55 1010.28 1010.05 1009.90 1009.80 1009.75 1009.74 1009.76 1009.78 1009.83 1009.90 1010.02 1010.19 1010.40 1010.65 1010.89 1011.11
1013.97 1013.87 1013.83 1013.88 1014.03 1014.28 1014.60 1014.92 1015.17 1015.29 1015.24 1014.99 1014.57 1014.01 1013.39 1012.79 1012.28 1011.90 1011.67 1011.58 1011.59 1011.63 1011.66 1011.62 1011.49 1011.26 1010.96 1010.63 1010.29 1009.98 1009.73 1009.53 1009.40 1009.31 1009.26 1009.24 1009.26 1009.33 1009.45 1009.62 1009.85 1010.11 1010.39 1010.64
1013.93 1013.82 1013.79 1013.89 1014.11 1014.44 1014.85 1015.25 1015.57 1015.73 1015.69 1015.42 1014.94 1014.31 1013.60 1012.90 1012.30 1011.85 1011.56 1011.44 1011.44 1011.51 1011.57 1011.57 1011.48 1011.29 1011.01 1010.68 1010.32 1009.97 1009.66 1009.41 1009.22 1009.08 1008.98 1008.93 1008.93 1008.97 1009.08 1009.25 1009.48 1009.75 1010.03 1010.30
1013.87 1013.76 1013.76 1013.89 1014.17 1014.56 1015.03 1015.49 1015.85 1016.04 1015.99 1015.71 1015.19 1014.50 1013.72 1012.94 1012.26 1011.73 1011.39 1011.23 1011.21 1011.28 1011.37 1011.41 1011.38 1011.25 1011.02 1010.73 1010.40 1010.06 1009.75 1009.49 1009.27 1009.11 1008.99 1008.92 1008.89 1008.92 1009.00 1009.15 1009.36 1009.61 1009.88 1010.14
1013.80 1013.71 1013.73 1013.89 1014.19 1014.60 1015.08 1015.55 1015.91 1016.10 1016.05 1015.75 1015.21 1014.50 1013.68 1012.85 1012.12 1011.53 1011.14 1010.94 1010.90 1010.97 1011.08 1011.17 1011.20 1011.15 1011.00 1010.79 1010.53 1010.25 1009.99 1009.75 1009.56 1009.40 1009.29 1009.21 1009.17 1009.18 1009.23 1009.35 1009.51 1009.72 1009.95 1010.19
1013.74 1013.68 1013.72 1013.87 1014.15 1014.53 1014.97 1015.39 1015.72 1015.87 1015.80 1015.49 1014.95 1014.23 1013.42 1012.59 1011.84 1011.24 1010.83 1010.60 1010.55 1010.61 1010.75 1010.88 1010.98 1011.01 1010.96 1010.85 1010.68 1010.50 1010.32 1010.15 1010.01 1009.89 1009.81 1009.74 1009.71 1009.70 1009.73 1009.80 1009.91 1010.06 1010.24 1010.42
1013.72 1013.70 1013.73 1013.86 1014.08 1014.37 1014.72 1015.04 1015.28 1015.37 1015.26 1014.94 1014.41 1013.73 1012.95 1012.17 1011.45 1010.87 1010.46 1010.23 1010.17 1010.24 1010.39 1010.57 1010.72 1010.83 1010.88 1010.87 1010.81 1010.74 1010.65 1010.57 1010.51 1010.46 1010.42 1010.39 1010.37 1010.36 1010.37 1010.41 1010.47 1010.56 1010.67 1010.80
1013.77 1013.77 1013.79 1013.86 1013.98 1014.16 1014.36 1014.54 1014.66 1014.65 1014.49 1014.16 1013.66 1013.03 1012.32 1011.61 1010.97 1010.44 1010.07 1009.86 1009.81 1009.88 1010.04 1010.24 1010.44 1010.61 1010.73 1010.82 1010.86 1010.88 1010.90 1010.91 1010.93 1010.94 1010.96 1010.98 1011.00 1011.01 1011.02 1011.04 1011.07 1011.12 1011.18 1011.25
1013.88 1013.90 1013.89 1013.89 1013.89 1013.92 1013.95 1013.97 1013.93 1013.82 1013.60 1013.25 1012.78 1012.22 1011.61 1011.00 1010.44 1009.99 1009.68 1009.51 1009.47 1009.55 1009.72 1009.92 1010.14 1010.34 1010.52 1010.66 1010.78 1010.88 1010.97 1011.07 1011.16 1011.24 1011.33 1011.40 1011.46 1011.51 1011.55 1011.58 1011.61 1011.64 1011.67 1011.71
1014.04 1014.06 1014.02 1013.92 1013.80 1013.67 1013.53 1013.38 1013.20 1012.97 1012.67 1012.31 1011.87 1011.38 1010.87 1010.37 1009.92 1009.56 1009.31 1009.19 1009.17 1009.26 1009.41 1009.61 1009.83 1010.04 1010.23 1010.41 1010.57 1010.72 1010.86 1011.00 1011.15 1011.29 1011.43 1011.57 1011.69 1011.79 1011.87 1011.94 1012.00 1012.04 1012.08 1012.12
1014.20 1014.20 1014.11 1013.94 1013.70 1013.43 1013.14 1012.83 1012.51 1012.17 1011.81 1011.42 1011.01 1010.58 1010.16 1009.77 1009.42 1009.15 1008.97 1008.89 1008.90 1008.98 1009.13 1009.31 1009.51 1009.71 1009.90 1010.08 1010.25 1010.41 1010.57 1010.74 1010.92 1011.10 1011.28 1011.47 1011.64 1011.81 1011.95 1012.08 1012.19 1012.28 1012.35 1012.42
1014.29 1014.27 1014.13 1013.90 1013.57 1013.19 1012.78 1012.34 1011.91 1011.48 1011.06 1010.65 1010.25 1009.87 1009.51 1009.20 1008.94 1008.75 1008.63 1008.59 1008.61 1008.70 1008.84 1009.01 1009.19 1009.37 1009.54 1009.71 1009.87 1010.02 1010.18 1010.35 1010.54 1010.73 1010.94 1011.16 1011.39 1011.61 1011.82 1012.01 1012.19 1012.34 1012.48 1012.59
1014.27 1014.22 1014.06 1013.78 1013.40 1012.96 1012.46 1011.95 1011.43 1010.93 1010.45 1010.01 1009.61 1009.24 1008.93 1008.66 1008.46 1008.32 1008.25 1008.24 1008.29 1008.38 1008.52 1008.68 1008.85 1009.02 1009.19 1009.34 1009.49 1009.63 1009.78 1009.93 1010.11 1010.30 1010.52 1010.76 1011.01 1011.27 1011.53 1011.79 1012.04 1012.26 1012.46 1012.64
1014.13 1014.06 1013.89 1013.60 1013.22 1012.75 1012.22 1011.65 1011.08 1010.52 1010.00 1009.51 1009.08 1008.70 1008.39 1008.14 1007.95 1007.84 1007.79 1007.80 1007.87 1007.98 1008.13 1008.30 1008.49 1008.67 1008.84 1009.00 1009.15 1009.29 1009.43 1009.58 1009.74 1009.92 1010.12 1010.36 1010.62 1010.90 1011.20 1011.50 1011.79 1012.08 1012.35 1012.59
1013.91 1013.85 1013.70 1013.43 1013.07 1012.61 1012.08 1011.50 1010.89 1010.28 1009.70 1009.15 1008.66 1008.24 1007.89 1007.61 1007.41 1007.29 1007.24 1007.26 1007.34 1007.48 1007.65 1007.85 1008.06 1008.28 1008.49 1008.68 1008.86 1009.02 1009.17 1009.32 1009.47 1009.64 1009.83 1010.04 1010.29 1010.57 1010.88 1011.20 1011.53 1011.86 1012.17 1012.47
1013.72 1013.69 1013.57 1013.36 1013.05 1012.62 1012.11 1011.51 1010.87 1010.22 1009.56 1008.95 1008.37 1007.87 1007.45 1007.11 1006.86 1006.70 1006.62 1006.63 1006.71 1006.86 1007.06 1007.29 1007.55 1007.82 1008.09 1008.35 1008.58 1008.79 1008.98 1009.15 1009.31 1009.47 1009.65 1009.85 1010.07 1010.33 1010.62 1010.94 1011.28 1011.63 1011.98 1012.32
1013.66 1013.69 1013.64 1013.49 1013.23 1012.84 1012.34 1011.74 1011.06 1010.34 1009.61 1008.90 1008.23 1007.62 1007.10 1006.67 1006.34 1006.11 1005.98 1005.95 1006.01 1006.15 1006.37 1006.63 1006.94 1007.27 1007.61 1007.94 1008.25 1008.53 1008.78 1009.00 1009.20 1009.38 1009.55 1009.73 1009.93 1010.16 1010.42 1010.72 1011.05 1011.41 1011.78 1012.16
1013.84 1013.94 1013.97 1013.88 1013.67 1013.31 1012.80 1012.18 1011.45 1010.66 1009.84 1009.02 1008.24 1007.52 1006.88 1006.34 1005.91 1005.60 1005.39 1005.30 1005.31 1005.42 1005.62 1005.89 1006.23 1006.61 1007.01 1007.41 1007.81 1008.17 1008.51 1008.80 1009.05 1009.27 1009.46 1009.64 1009.82 1010.03 1010.26 1010.53 1010.84 1011.19 1011.58 1011.99
1014.32 1014.50 1014.59 1014.54 1014.35 1013.99 1013.46 1012.79 1012.00 1011.13 1010.21 1009.29 1008.40 1007.57 1006.82 1006.18 1005.65 1005.23 1004.93 1004.75 1004.69 1004.73 1004.87 1005.12 1005.44 1005.83 1006.26 1006.73 1007.19 1007.65 1008.07 1008.44 1008.77 1009.04 1009.28 1009.48 1009.67 1009.86 1010.08 1010.33 1010.62 1010.97 1011.37 1011.80
1015.06 1015.31 1015.44 1015.41 1015.20 1014.80 1014.22 1013.48 1012.61 1011.65 1010.65 1009.65 1008.67 1007.76 1006.93 1006.20 1005.58 1005.07 1004.67 1004.38 1004.20 1004.14 1004.20 1004.36 1004.62 1004.98 1005.40 1005.89 1006.40 1006.92 1007.42 1007.89 1008.29 1008.65 1008.94 1009.19 1009.40 1009.61 1009.82 1010.07 1010.36 1010.71 1011.12 1011.59
1015.98 1016.26 1016.39 1016.32 1016.05 1015.58 1014.92 1014.10 1013.15 1012.12 1011.06 1010.01 1008.99 1008.04 1007.17 1006.39 1005.70 1005.11 1004.62 1004.22 1003.92 1003.72 1003.64 1003.68 1003.83 1004.10 1004.48 1004.94 1005.46 1006.01 1006.57 1007.11 1007.60 1008.04 1008.41 1008.72 1008.98 1009.22 1009.46 1009.72 1010.02 1010.39 1010.83 1011.32
Thickness
5765 5764 5758 5761 5766 5765 5763 5762 5761 5767 5779 5778 5775 5775 5780 5787 5791 5791 5793 5796 5797 5797 5801 5803 5802 5801 5800 5797 5793 5791 5788 5786 5782 5778 5774 5770 5768 5768 5768 5767 5764 5762 5759 5756
5757 5752 5759 5763 5763 5760 5757 5754 5757 5763 5772 5770 5767 5769 5774 5774 5774 5775 5776 5778 5782 5784 5786 5787 5788 5788 5787 5786 5784 5783 5781 5780 5778 5775 5771 5768 5765 5763 5763 5761 5759 5756 5753 5750
5748 5753 5762 5759 5754 5752 5753 5752 5751 5752 5762 5769 5761 5762 5764 5768 5768 5767 5768 5767 5768 5768 5769 5772 5772 5773 5775 5774 5773 5773 5772 5772 5771 5768 5765 5762 5760 5757 5754 5753 5752 5750 5747 5744
5747 5754 5755 5753 5749 5750 5744 5753 5750 5747 5745 5749 5751 5739 5761 5763 5760 5758 5758 5759 5758 5758 5759 5759 5760 5761 5762 5763 5764 5763 5762 5762 5761 5760 5757 5754 5750 5748 5748 5747 5747 5743 5741 5737
5740 5747 5746 5742 5745 5747 5745 5749 5746 5744 5740 5739 5748 5740 5755 5755 5750 5750 5749 5750 5751 5750 5750 5748 5750 5751 5752 5754 5754 5754 5753 5752 5751 5749 5748 5746 5744 5744 5744 5742 5739 5736 5733 5729
5742 5750 5749 5746 5749 5747 5745 5742 5742 5741 5737 5724 5737 5729 5737 5752 5746 5742 5741 5741 5741 5741 5741 5740 5741 5742 5742 5744 5744 5744 5743 5741 5741 5739 5739 5737 5736 5734 5733 5733 5730 5727 5723 5722
5730 5740 5748 5749 5739 5741 5738 5724 5715 5716 5722 5724 5733 5721 5732 5744 5740 5736 5732 5733 5734 5734 5733 5732 5732 5731 5732 5732 5732 5732 5730 5729 5729 5729 5727 5727 5726 5724 5723 5724 5721 5718 5715 5713
5716 5719 5738 5741 5735 5727 5728 5718 5700 5689 5699 5714 5725 5719 5735 5737 5735 5731 5729 5727 5727 5727 5727 5725 5725 5724 5723 5722 5721 5720 5717 5716 5716 5715 5714 5714 5714 5713 5713 5713 5712 5709 5707 5706
5718 5717 5736 5737 5739 5732 5720 5719 5719 5702 5704 5701 5716 5727 5733 5729 5725 5724 5723 5722 5721 5721 5720 5719 5718 5717 5715 5712 5709 5707 5705 5703 5701 5699 5698 5698 5698 5698 5698 5698 5697 5697 5696 5696
5730 5715 5732 5734 5733 5729 5726 5722 5710 5698 5683 5688 5706 5714 5716 5718 5717 5720 5718 5717 5717 5716 5715 5713 5711 5708 5705 5702 5699 5696 5692 5689 5686 5684 5681 5681 5680 5680 5681 5681 5679 5680 5680 5682
5733 5716 5722 5725 5719 5719 5717 5713 5706 5703 5695 5682 5685 5705 5726 5718 5715 5713 5714 5715 5713 5710 5709 5707 5704 5700 5696 5692 5688 5683 5679 5674 5670 5666 5664 5662 5662 5662 5662 5662 5663 5663 5665 5667
5730 5722 5714 5723 5731 5725 5717 5711 5704 5687 5686 5688 5682 5697 5729 5719 5713 5709 5709 5709 5708 5705 5703 5700 5697 5692 5687 5682 5677 5672 5666 5660 5655 5651 5648 5646 5644 5644 5644 5645 5646 5647 5649 5652
5723 5709 5699 5709 5714 5713 5708 5710 5705 5699 5689 5685 5680 5694 5722 5712 5709 5708 5706 5704 5702 5699 5696 5693 5688 5683 5678 5673 5667 5661 5655 5650 5645 5640 5636 5633 5631 5629 5628 5630 5631 5632 5635 5637
5719 5708 5700 5694 5706 5713 5707 5707 5704 5693 5683 5685 5689 5696 5707 5707 5703 5704 5703 5699 5697 5693 5690 5685 5680 5675 5670 5665 5659 5654 5648 5642 5636 5631 5627 5624 5622 5619 5619 5619 5619 5619 5622 5624
5715 5706 5709 5712 5715 5713 5708 5705 5704 5695 5690 5683 5690 5692 5698 5700 5699 5698 5696 5693 5689 5687 5684 5679 5674 5670 5664 5659 5653 5648 5642 5636 5631 5626 5621 5617 5615 5613 5611 5611 5610 5610 5612 5615
5710 5701 5703 5702 5708 5708 5702 5703 5701 5698 5696 5692 5690 5690 5701 5702 5697 5691 5688 5684 5682 5681 5679 5675 5670 5665 5660 5654 5650 5644 5638 5633 5628 5623 5619 5615 5611 5608 5606 5605 5604 5603 5604 5606
5710 5697 5691 5694 5705 5697 5691 5704 5702 5700 5701 5695 5686 5691 5698 5692 5688 5685 5682 5680 5678 5676 5674 5670 5666 5661 5656 5651 5647 5640 5635 5631 5625 5621 5617 5613 5609 5605 5604 5602 5601 5599 5599 5599
5700 5692 5689 5692 5689 5674 5702 5715 5706 5697 5698 5699 5695 5694 5692 5688 5686 5683 5680 5676 5674 5672 5669 5666 5661 5657 5653 5648 5643 5638 5634 5629 5624 5620 5616 5612 5608 5605 5602 5600 5598 5596 5596 5595
5698 5689 5688 5686 5682 5688 5701 5705 5700 5688 5687 5696 5691 5688 5687 5686 5679 5679 5681 5676 5670 5668 5665 5661 5658 5654 5649 5644 5640 5635 5631 5627 5623 5619 5615 5611 5608 5604 5601 5598 5595 5594 5592 5591
5690 5686 5682 5680 5667 5667 5689 5698 5696 5683 5675 5692 5687 5680 5679 5674 5664 5672 5677 5672 5667 5663 5660 5656 5653 5649 5644 5640 5636 5631 5628 5625 5621 5618 5615 5611 5607 5603 5600 5597 5594 5592 5590 5588
5686 5681 5677 5673 5669 5679 5693 5690 5684 5662 5668 5678 5677 5674 5672 5668 5667 5672 5671 5667 5662 5658 5655 5651 5648 5643 5640 5636 5631 5627 5625 5623 5621 5618 5613 5608 5605 5602 5599 5595 5592 5590 5588 5586
5679 5677 5673 5668 5659 5666 5682 5675 5661 5658 5667 5667 5668 5668 5668 5668 5669 5669 5666 5661 5657 5653 5650 5647 5642 5639 5636 5633 5628 5624 5622 5622 5619 5615 5610 5607 5603 5601 5598 5593 5590 5588 5585 5582
5678 5676 5669 5663 5663 5670 5669 5662 5661 5660 5658 5660 5662 5664 5664 5663 5664 5664 5662 5658 5654 5650 5647 5644 5639 5635 5633 5630 5626 5622 5622 5620 5616 5612 5609 5605 5602 5600 5597 5593 5589 5586 5584 5585
5676 5671 5660 5653 5656 5654 5653 5651 5649 5648 5649 5653 5656 5658 5659 5657 5659 5658 5657 5654 5651 5647 5644 5640 5637 5633 5630 5628 5625 5622 5621 5618 5614 5610 5607 5604 5601 5598 5596 5593 5591 5589 5587 5586
5656 5651 5641 5637 5638 5633 5633 5628 5630 5634 5638 5642 5645 5647 5648 5649 5650 5651 5650 5649 5647 5644 5641 5637 5634 5631 5629 5626 5623 5621 5619 5615 5612 5609 5607 5604 5601 5598 5595 5593 5591 5589 5588 5586
5630 5621 5614 5610 5605 5603 5605 5608 5611 5614 5618 5623 5627 5630 5633 5635 5636 5638 5641 5642 5642 5640 5637 5634 5632 5630 5627 5624 5621 5619 5617 5613 5610 5607 5605 5603 5601 5598 5595 5592 5588 5578 5579 5576